DW9750 Weather Reports


time (UTC)temp
C
wind
direction
speed
KPH
gust
KPH
rain 1hr
cm
rain 24hr
cm
rain mn
cm
humidity
%
barometer
mb
20260504204518 26 227 8.0 19.3 0.00 0.00 0.00 64 1009.7
20260504203015 25 229 6.4 22.5 0.00 0.00 0.00 64 1010.0
20260504201513 25 155 11.3 20.9 0.00 0.00 0.00 63 1010.2
20260504200021 25 201 9.7 24.1 0.00 0.00 0.00 64 1010.5
20260504194508 25 201 8.0 19.3 0.00 0.00 0.00 65 1010.6
20260504193005 25 210 9.7 19.3 0.00 0.00 0.00 64 1010.8
20260504191513 25 220 8.0 16.1 0.00 0.00 0.00 63 1011.0
20260504190003 25 192 6.4 22.5 0.00 0.00 0.00 66 1011.1
20260504184506 25 257 11.3 20.9 0.00 0.00 0.00 64 1011.2
20260504183104 25 194 8.0 17.7 0.00 0.00 0.00 68 1011.3
20260504181555 24 198 9.7 22.5 0.00 0.00 0.00 66 1011.7
20260504180052 23 252 9.7 22.5 0.00 0.00 0.00 67 1011.9
20260504174552 24 199 8.0 22.5 0.00 0.00 0.00 67 1012.2
20260504173052 23 267 8.0 25.7 0.00 0.00 0.00 69 1012.2
20260504171545 23 159 11.3 25.7 0.00 0.00 0.00 69 1012.4
20260504081546 16 208 1.6 6.4 0.00 0.00 0.00 81 1014.6
20260504050020 16 150 0.0 4.8 0.00 0.00 0.00 72 1016.6
20260504044527 16 119 1.6 6.4 0.00 0.00 0.00 71 1016.6
20260504043018 15 121 0.0 4.8 0.00 0.00 0.00 73 1016.6
20260504041519 16 109 0.0 3.2 0.00 0.00 0.00 69 1016.6
20260504040017 16 87 0.0 0.0 0.00 0.00 0.00 71 1016.7
20260504034517 16 87 1.6 6.4 0.00 0.00 0.00 64 1016.7
20260504033016 17 109 0.0 0.0 0.00 0.00 0.00 64 1016.6
20260504031516 17 102 0.0 0.0 0.00 0.00 0.00 62 1016.5
20260504030031 17 118 0.0 3.2 0.00 0.00 0.00 61 1016.6
20260504024514 17 104 0.0 1.6 0.00 0.00 0.00 59 1016.7
20260504023013 18 108 1.6 4.8 0.00 0.00 0.00 57 1016.5
20260504021512 18 99 1.6 3.2 0.00 0.00 0.00 54 1016.7
20260504020012 19 94 1.6 4.8 0.00 0.00 0.00 54 1016.6
20260504014531 19 100 1.6 4.8 0.00 0.00 0.00 52 1016.5
20260504013011 20 155 0.0 1.6 0.00 0.00 0.00 51 1016.5
20260504011509 21 151 0.0 3.2 0.00 0.00 0.00 48 1016.3
20260504010010 21 148 1.6 6.4 0.00 0.00 0.00 46 1016.2
20260504004511 22 197 4.8 11.3 0.00 0.00 0.00 44 1016.1
20260504003021 22 194 3.2 14.5 0.00 0.00 0.00 42 1016.0
20260504001506 23 166 3.2 16.1 0.00 0.00 0.00 40 1016.2
20260504000004 23 166 4.8 17.7 0.00 0.00 0.00 40 1016.5
20260503234511 23 107 1.6 16.1 0.00 0.00 0.00 41 1016.4
20260503233003 25 207 4.8 17.7 0.00 0.00 0.00 38 1016.6
20260503231502 23 123 3.2 9.7 0.00 0.00 0.00 41 1016.6
20260503230104 24 97 4.8 16.1 0.00 0.00 0.00 37 1016.6
20260503224600 25 265 8.0 16.1 0.00 0.00 0.00 35 1016.8
20260503223100 25 224 6.4 19.3 0.00 0.00 0.00 38 1016.7
20260503221557 25 72 6.4 20.9 0.00 0.00 0.00 36 1016.8
20260503220057 25 113 6.4 16.1 0.00 0.00 0.00 36 1017.1
20260503214554 25 119 4.8 19.3 0.00 0.00 0.00 37 1017.4
20260503213104 25 152 4.8 17.7 0.00 0.00 0.00 36 1017.6
20260503211551 25 112 6.4 19.3 0.00 0.00 0.00 36 1017.9
20260503210056 25 82 6.4 16.1 0.00 0.00 0.00 36 1018.0